Regional Weather Roundup
Issued by NWS Northern Indiana

Home | Current Version | Previous Version | Graphics & Text | Print | Product List | Glossary On
Versions: 1 2 3 4 5 6 7 8 9 10 11 12 13 14 15 16 17 18 19 20 21 22 23 24 25 26 27 28 29 30 31 32 33 34 35 36 37 38 39 40 41 42 43 44 45 46 47 48 49 50
000
ASUS43 KIWX 171201
RWRIWX

KIWX WEATHER ROUNDUP
NATIONAL WEATHER SERVICE NORTHERN INDIANA
800 AM EDT THU AUG 17 2017

NOTE: "FAIR" INDICATES FEW OR NO CLOUDS BELOW 12,000 FEET WITH NO
SIGNIFICANT WEATHER AND/OR OBSTRUCTIONS TO VISIBILITY.

* THESE STATIONS ARE NOT UNDER NWS QUALITY CONTROL. THEY ALSO MAY NOT
  REPORT WEATHER SUCH AS PRECIPITATION OR FOG.

INZ001>027-171300-
NORTHERN INDIANA

CITY           SKY/WX    TMP DP  RH WIND       PRES   REMARKS
GARY*          MOCLDY    73  70  88 S9        29.81S
VALPARAISO     CLOUDY    73  70  90 S10       29.84R
6HR MIN TEMP:  72; 6HR MAX TEMP:  77;

MICHIGAN CITY* CLOUDY    72  68  88 S9G17     29.82S
SOUTH BEND     PTSUNNY   74  72  93 S9        29.84S
6HR MIN TEMP:  73; 6HR MAX TEMP:  77;

ELKHART*       CLOUDY    73  72  94 S7        29.84F
GOSHEN         CLOUDY    74  70  87 S8        29.85F
6HR MIN TEMP:  73; 6HR MAX TEMP:  76; 6HR PCP:  0.26;

MONTICELLO*    CLOUDY    73  71  92 S5        29.85S
6HR MIN TEMP:  73; 6HR MAX TEMP:  77;

WARSAW*        PTSUNNY   72  72 100 CALM      29.86F FOG
FORT WAYNE     PTSUNNY   74  71  91 S10       29.88F
6HR MIN TEMP:  72; 6HR MAX TEMP:  77; 6HR PCP:  0.19;

PERU/GRISSOM   MOSUNNY   74  74 100 S8        29.86S
6HR MIN TEMP:  73; 6HR MAX TEMP:  76; 6HR PCP:  0.03;


$$
INZ028>050-171300-
CENTRAL INDIANA

CITY           SKY/WX    TMP DP  RH WIND       PRES   REMARKS
LAFAYETTE      CLOUDY    73  71  93 S5        29.85S
6HR MIN TEMP:  71; 6HR MAX TEMP:  76;

KOKOMO*        CLOUDY    73  72  96 S8        29.89S
6HR MIN TEMP:  72; 6HR MAX TEMP:  76;

MUNCIE*        CLOUDY    76  71  85 S10G17    29.90F
6HR MIN TEMP:  75; 6HR MAX TEMP:  79; 6HR PCP:  0.10;

INDIANAPOLIS   PTSUNNY   75  73  93 S13       29.89S
6HR MIN TEMP:  74; 6HR MAX TEMP:  78;


$$
MIZ043>046-050>051-056>058-064>065-071>073-077>080-171300-
SOUTHWEST LOWER MICHIGAN

CITY           SKY/WX    TMP DP  RH WIND       PRES   REMARKS
BATTLE CREEK   PTSUNNY   72  70  93 S10       29.85S
6HR MIN TEMP:  69; 6HR MAX TEMP:  75; 6HR PCP:  0.12;

BENTON HARBOR  CLOUDY    75  69  81 S8        29.81S
6HR MIN TEMP:  74; 6HR MAX TEMP:  76; 6HR PCP:  0.02;

COLDWATER*     CLOUDY    72  72 100 S5        29.86S
6HR MIN TEMP:  69; 6HR MAX TEMP:  72;

HILLSDALE*     CLOUDY    70  68  94 S7        29.89R FOG
HOLLAND        PTSUNNY   73  71  93 S8        29.80S
6HR MIN TEMP:  72; 6HR MAX TEMP:  76; 6HR PCP:  0.64;

GRAND RAPIDS   CLOUDY    70  69  97 S7        29.82S
6HR MIN TEMP:  68; 6HR MAX TEMP:  74; 6HR PCP:  0.47;

KALAMAZOO      PTSUNNY   73  70  90 S8        29.83F FOG
6HR MIN TEMP:  71; 6HR MAX TEMP:  73; 6HR PCP:  0.06;

STURGIS*       CLOUDY    72  71  96 S8        29.85S
6HR MIN TEMP:  70; 6HR MAX TEMP:  73; 6HR PCP:  0.04;

THREE RIVERS*  CLOUDY    74  72  91 S9        29.85S
6HR MIN TEMP:  73; 6HR MAX TEMP:  77;


$$
OHZ001>008-015>018-024>025-171300-
NORTHWEST OHIO

CITY           SKY/WX    TMP DP  RH WIND       PRES   REMARKS
DEFIANCE       CLOUDY    73  70  90 S7        29.89S FOG
6HR MIN TEMP:  71; 6HR MAX TEMP:  73; 6HR PCP:  0.18;

FINDLAY        CLOUDY    76  70  82 S13       29.90S
6HR MIN TEMP:  73; 6HR MAX TEMP:  76;

TOLEDO EXPRESS CLOUDY    70  70 100 SE3       29.89S FOG
6HR MIN TEMP:  68; 6HR MAX TEMP:  71; 6HR PCP:  0.09;

TOLEDO METCALF MOSUNNY   74  72  93 S3        29.90S FOG
6HR MIN TEMP:  69; 6HR MAX TEMP:  74; 6HR PCP:  0.08;

LIMA           CLOUDY    74  72  93 S9        29.92F
6HR MIN TEMP:  72; 6HR MAX TEMP:  74; 6HR PCP: TRACE;


$$
AND FOR LAKE MICHIGAN COASTAL AND OPEN LAKE BUOY OBSERVATIONS

STATION/POSITION TEMP    WIND        PRES    VSBY  WAVE
                 AIR SEA DIR/SP/G                  HT/PER
                 (F)     (DEG/KT/KT) (MB)    (MI)  (FT/S)
CALUMET HARBOR    73     190/  7/ 11 1008.5R
MICHIGAN CITY     72     160/ 13/ 14   N/A
BURNS HARBOR      73     190/ 12/ 17 1009.8S
SAINT JOSEPH      75     200/  5/ 12 1009.8
SOUTH LAKE BUOY   74 71  180/ 16/ 19 1007.7          2/ 4
4 MI NW BRIDGMAN  74 74  190/ 14/ 17 1008.9F         2/ 3
MICHIGAN CITY     74 74  190/ 14/ 17   N/A           2/ 3

$$
&&




USA.gov is the U.S. government's official web portal to all federal, state and local government web resources and services.